Flag for Canada Weather past 2 weeks in Coral Harbour, Nunavut Territory, Canada

Now
9 °F

Partly sunny.


Feels Like: -10 °F
Forecast: -7 / 12 °F
Wind: 18 mph from Northwest

Location: Coral Harbour


UV Index: 0 (Low)

Visibility: 15 mi


Pressure: 30.09 "Hg

Humidity: 66%

Dew point: 0 °F

Location of Coral HarbourLocation

Historic Weather in Coral Harbour

°F

Coral Harbour temperature yesterday

Maximum temperature yesterday: 7 °F (at 2:00 PM)
Minimum temperature yesterday: -11 °F (at 6:00 AM)
Average temperature yesterday: -2 °F

Past Weeks' High & Low Weather Summary

 TemperatureHumidityPressure
High12 °F (Apr 7, 12:00 PM)85% (Apr 6, 4:00 PM)30.22 "Hg (Apr 6, 4:00 PM)
Low-27 °F (Apr 4, 7:00 AM)55% (Apr 9, 2:00 PM)29.07 "Hg (Apr 11, 3:00 AM)
Average-4 °F70%29.75 "Hg
* Reported Apr 3 10:00 AM — Apr 18 10:00 AM, Coral Harbour, Weather by CustomWeather, © 2014

Note: Actual official high and low records may vary slightly from our data, if they occured in-between our weather recording intervals... More about our weather records

Advertising

Historic Weather Conditions — Data for Previous 24 hours

 ConditionsComfort  
Time TempWeatherWind HumidityBarometerVisibility
10:00 AM
Apr 18
9 °FPartly sunny.18 mph66%30.09 "Hg15 mi
9:00 AM9 °FPartly sunny.14 mph61%30.10 "Hg15 mi
8:00 AM5 °FOvercast.No wind66%30.10 "Hg15 mi
7:00 AM3 °FOvercast.20 mph66%30.08 "Hg15 mi
6:00 AM0 °FOvercast.14 mph71%30.07 "Hg15 mi
5:00 AM0 °FPartly sunny.20 mph71%30.05 "Hg15 mi
4:00 AM-2 °FPassing clouds.7 mph71%30.04 "Hg15 mi
3:00 AM-2 °FClear.10 mph71%30.03 "Hg15 mi
2:00 AM-4 °FClear.9 mph71%29.99 "Hg15 mi
12:00 AM-4 °FClear.5 mph71%30.00 "Hg15 mi
11:00 PM
Apr 17
-2 °FClear.7 mph71%29.99 "Hg15 mi
10:00 PM-2 °FClear.20 mph71%29.97 "Hg15 mi
9:00 PM-2 °FClear.20 mph71%29.96 "Hg15 mi
8:00 PM0 °FPassing clouds.18 mph65%29.94 "Hg15 mi
7:00 PM1 °FPassing clouds.17 mph71%29.92 "Hg15 mi
6:00 PM3 °FPassing clouds.15 mph66%29.90 "Hg15 mi
5:00 PM3 °FLow level haze.20 mph66%29.87 "Hg12 mi
4:00 PM5 °FPassing clouds.23 mph66%29.84 "Hg15 mi
3:00 PM7 °FPassing clouds.17 mph61%29.82 "Hg15 mi
2:00 PM7 °FPassing clouds.15 mph61%29.79 "Hg15 mi
1:00 PM5 °FPassing clouds.9 mph55%29.77 "Hg15 mi
12:00 PM3 °FPassing clouds.9 mph60%29.73 "Hg15 mi
11:00 AM3 °FPassing clouds.9 mph60%29.70 "Hg15 mi
Weather by CustomWeather, © 2014

See weather overview